Location: Unspecified
(0.0000°N, 0.0000°E)
Time: 18:41:56
(UTC+00:00)

STRELA 3 - Visible Passes

Search period start: 17 May 2026 00:00
Search period end: 27 May 2026 00:00
Orbit: 1497 x 1510 km, 82.5° (Epoch: 17 May)

Date Brightness Start Highest point End Pass type
(mag) Time Alt. Az. Time Alt. Az. Time Alt. Az.
17 May 9.8 01:26:16 10° NE 01:27:36 14° NE 01:27:36 14° NE visible
17 May 9.0 03:20:44 10° NNW 03:23:39 23° NNW 03:23:39 23° NNW visible
18 May 9.1 02:33:24 10° N 02:36:23 25° N 02:36:23 25° N visible
19 May 9.6 01:47:13 10° NNE 01:49:11 18° NNE 01:49:11 18° NNE visible
20 May 9.4 02:56:42 10° NNW 02:58:09 16° NNW 02:58:09 16° NNW visible
21 May 9.6 02:09:30 10° N 02:11:03 17° N 02:11:03 17° N visible
22 May 9.9 01:23:29 10° NNE 01:24:02 12° NNE 01:24:02 12° NNE visible
23 May 9.7 02:32:42 10° NNW 02:33:07 12° NNW 02:33:07 12° NNW visible
24 May 9.8 01:45:38 10° N 01:46:09 12° N 01:46:09 12° N visible
